Location: ??????????
(48.6184°N, 37.8981°E)
Time: 19:07:45
(UTC+00:00)

Daily predictions for brighter satellites

Satellite Brightness Start Highest point End
(mag) Time Altitude Azimuth Time Altitude Azimuth Time Altitude Azimuth
CZ-2D R/B 3.5 15:41:08 10° S 15:44:56 75° WSW 15:48:46 10° NNW
Cosmos 1867 4.3 15:40:31 10° WSW 15:45:52 55° NW 15:51:16 10° NNE
SJ-11-01 4.5 15:41:24 10° SE 15:45:56 51° ENE 15:50:30 10° N
CZ-2C R/B 3.6 15:42:13 10° S 15:47:57 76° WSW 15:53:28 10° NNW
Cosmos 2322 Rocket 2.5 15:44:22 10° S 15:49:38 44° ESE 15:54:57 10° NE
Cosmos 1666 Rocket 3.5 15:45:42 10° S 15:49:58 65° E 15:54:17 10° NNE
Nadezhda 3 Rocket 4.2 15:44:15 10° N 15:50:28 53° ENE 15:56:41 10° SSE
Cosmos 1862 Rocket 3.7 15:46:29 10° N 15:50:55 53° ENE 15:55:18 10° SSE
ERBS 2.4 15:49:17 10° WSW 15:52:36 76° NNW 15:55:56 10° NE
Cosmos 1689 Rocket 3.0 15:50:34 10° NE 15:53:03 26° E 15:55:32 10° SSE
Meteor 1-25 Rocket 4.3 15:50:34 10° S 15:56:16 68° E 16:01:56 10° NNE
Sich 1 3.6 15:53:21 10° SSW 15:57:43 66° WNW 16:02:09 10° N
Cosmos 2074 Rocket 4.0 15:51:43 10° S 15:57:58 77° E 16:04:14 10° NNE
Cosmos 2154 Rocket 4.1 15:52:10 10° SSE 15:58:09 52° E 16:04:08 10° NNE
Cosmos 1461 3.3 15:55:43 10° SW 16:00:28 80° NW 16:05:14 10° NE
Aureole 2 Rocket 2.1 15:58:55 10° N 16:01:21 38° ENE 16:03:43 10° SE
YAOGAN 1 2.5 16:02:28 10° SSE 16:06:48 84° ENE 16:11:09 10° NNW
APEX 4.5 16:04:46 10° NW 16:07:18 30° WSW 16:09:43 10° S
Cosmos 2219 Rocket 3.7 16:04:54 10° SE 16:07:39 14° E 16:10:25 10° ENE
Helios 1A Rocket 3.0 16:03:58 10° SSE 16:07:55 52° ENE 16:11:52 10° N
USA 234 4.0 16:05:52 10° ENE 16:11:32 31° SE 16:17:11 10° S
COSMO-SKYMED 1 3.4 16:07:46 10° N 16:12:02 55° WNW 16:16:16 10° SSW
Meteor 1-18 Rocket 4.3 16:07:03 10° N 16:13:02 77° ENE 16:18:57 10° SSE
Cosmos 2263 Rocket 3.7 16:08:01 10° NW 16:13:08 39° WSW 16:18:14 10° S
FALCON 9 DEB 4.0 16:10:59 10° WNW 16:13:57 35° N 16:16:20 14° ENE
GP-B 3.6 16:09:57 10° SSE 16:14:02 37° E 16:18:07 10° NNE
SL-16 R/B 2.2 16:08:23 10° SSW 16:14:02 82° ESE 16:19:46 10° NNE
SJ-6B 4.1 16:11:18 12° ESE 16:14:07 23° ENE 16:17:18 10° NNE
Abrixas rocket 1.4 16:11:47 10° WSW 16:14:17 77° S 16:15:47 21° E
Cosmos 1992 Rocket 4.1 16:10:04 10° S 16:15:10 57° ESE 16:20:19 10° NNE
ARGOS 3.1 16:10:11 10° SSE 16:15:35 77° ENE 16:21:03 10° NNW
Cosmos 968 Rocket 3.9 16:10:36 10° NNW 16:15:50 67° WSW 16:21:03 10° S
Cosmos 2184 Rocket 4.1 16:12:19 10° SSW 16:18:30 80° W 16:24:45 10° N
Cosmos 1486 Rocket 4.3 16:14:00 10° NNW 16:19:16 72° WSW 16:24:33 10° SSE
SeaSat 1 2.7 16:17:30 10° NE 16:22:18 47° ESE 16:27:01 10° S
Okean 1 3.5 16:20:16 10° NNW 16:24:18 76° W 16:28:20 10° S
SJ 16-02 3.2 16:22:20 10° NNE 16:24:46 14° NE 16:25:34 14° ENE
Cosmos 1515 4.0 16:21:09 10° NNW 16:24:58 70° W 16:28:46 10° S
CZ-2C R/B 2.7 16:20:34 10° NNE 16:25:59 54° E 16:31:14 10° S
Cosmos 1633 Rocket 3.5 16:21:43 10° SSW 16:26:07 66° W 16:30:33 10° N
FALCON 9 DEB 4.0 16:23:36 10° WNW 16:26:34 35° N 16:28:22 19° ENE
Okean 1-7 3.4 16:22:27 10° N 16:26:38 42° ENE 16:30:45 10° SSE
H-2A R/B 2.7 16:22:30 10° S 16:27:53 63° W 16:33:19 10° NNW
OBJECT-B 2.1 16:30:19 21° ENE 16:30:19 21° ENE 16:32:49 10° NNE
SL-8 Rocket 4.4 16:24:39 10° SSE 16:30:20 38° E 16:35:59 10° NNE
Gbstr 26 Del rocket 3.6 16:27:32 10° W 16:31:58 63° N 16:35:54 18° ENE
CZ-4 R/B 2.6 16:28:46 10° S 16:32:26 42° W 16:36:12 10° NNW
DMSP B5D2-2 4.4 16:28:01 10° NNE 16:32:58 41° E 16:37:52 10° SSE
Cosmos 2237 4.2 16:27:34 10° SSW 16:33:12 64° ESE 16:38:54 10° NNE
SAR-Lupe-4 3.5 16:32:07 10° NNE 16:35:43 89° WNW 16:39:17 10° SSW
USA 305 3.8 16:31:55 10° WNW 16:35:59 40° N 16:38:44 18° ENE
SL-4 R/B 1.7 16:38:13 10° WNW 16:41:44 61° NNE 16:43:04 33° E
Cosmos 1869 Rocket 4.2 16:38:57 10° SSE 16:42:49 32° E 16:46:43 10° NNE
Cosmos 2366 rocket 4.4 16:39:26 10° SSE 16:45:16 41° E 16:51:08 10° NNE
Cosmos 1354 Rocket 4.1 16:40:40 10° NNW 16:45:57 83° WSW 16:51:11 10° SSE
USA 307 3.8 16:43:13 10° WNW 16:47:16 39° N 16:49:33 22° NE
CSL-04 Rocket 3.9 16:42:26 10° S 16:47:59 74° WSW 16:53:31 10° NNW
Cosmos 1844 Rocket 2.7 16:42:51 10° NNW 16:48:28 86° WSW 16:54:02 10° SSE
ATLAS CENTAUR R/B 0.9 16:45:19 10° SSW 16:48:53 64° SE 16:50:43 27° NE
USA 306 3.8 16:46:42 10° WNW 16:50:43 39° N 16:52:50 23° NE
Okean-O 4.2 16:46:38 10° SSW 16:50:46 38° W 16:54:56 10° NNW
FALCON 9 DEB 3.3 16:48:28 10° WNW 16:51:52 65° SSW 16:53:01 37° SE
USA 186 2.2 16:53:32 33° N 16:53:32 33° N 16:55:07 10° N
ERS-2 2.9 16:49:07 10° N 16:52:42 53° WNW 16:56:16 10° SSW
Cosmos 2341 Rocket 3.9 16:47:07 10° S 16:53:24 71° E 16:59:38 10° NNE
Cosmos 1777 Rocket 4.0 16:49:36 10° NNW 16:54:48 58° ENE 16:57:41 26° SE
Cosmos 1378 4.2 16:52:04 10° N 16:54:38 27° NE 16:54:38 27° NE
Meteor 1-5 Rocket 4.0 16:51:16 10° S 16:56:35 71° E 17:02:06 10° NNE
FALCON 9 DEB 3.8 16:54:12 10° WNW 16:57:11 38° N 16:57:39 35° NNE
Cosmos 2333 4.4 16:51:50 10° S 16:57:12 47° ESE 17:02:40 10° NE
USA 308 3.8 16:53:52 10° WNW 16:57:55 39° N 16:59:43 26° NE
SPOT 3 Rocket 4.4 16:57:20 28° ENE 16:58:08 30° ENE 17:02:37 10° N
FALCON 9 DEB 3.8 16:56:01 10° WNW 16:59:02 37° N 16:59:31 35° NNE
Cosmos 1666 2.5 16:55:49 10° S 16:59:29 63° E 17:03:11 10° NNE
Cosmos 1844 3.7 16:54:15 10° NNW 17:00:03 85° WSW 17:05:00 14° SSE
Cosmos 2360 Rocket 2.1 16:57:51 10° SSW 17:03:30 89° SE 17:09:14 10° NNE
Ariane Rocket 3.0 17:01:52 25° SE 17:04:45 59° ENE 17:09:48 10° N
Cosmos 1727 Rocket 4.2 16:59:27 10° N 17:05:24 46° ENE 17:08:09 29° SE
Okean 3 3.6 17:01:23 10° N 17:05:34 52° ENE 17:06:23 45° ESE
Cosmos 2278 Rocket 3.0 17:00:31 10° NNW 17:05:35 32° NE 17:06:44 29° ENE
Cosmos 2221 Rocket 4.5 17:04:49 10° N 17:08:09 31° NE 17:08:09 31° NE
Meteor 2-4 Rocket 4.3 17:05:46 10° NNW 17:11:30 61° W 17:17:19 10° S
Cosmos 2218 Rocket 4.0 17:05:46 10° S 17:12:05 65° E 17:18:25 10° NNE
Cosmos 2333 Rocket 2.3 17:07:56 10° S 17:13:24 50° ESE 17:18:55 10° NE
Cosmos 1703 Rocket 4.1 17:12:21 10° NNW 17:16:42 58° W 17:20:58 10° S
SME Rocket 4.1 17:11:07 10° NNE 17:19:35 70° ESE 17:25:00 10° S
Cosmos 1943 Rocket 4.2 17:21:53 10° N 17:24:41 14° NNE 17:25:21 13° NE
Cosmos 864 Rocket 4.3 17:22:53 10° S 17:29:03 80° E 17:35:17 10° N
ERBS 4.2 17:26:28 10° WNW 17:29:11 23° NNW 17:29:29 22° N
BREEZE-M DEB (TANK) 3.1 17:28:11 10° WSW 17:30:49 35° SW 17:30:49 35° SW
Cosmos 2322 Rocket 3.6 17:28:37 10° WSW 17:33:47 37° NW 17:39:00 10° NNE
Resurs 01 Rocket 2.4 17:35:07 40° NNE 17:35:07 40° NNE 17:38:18 10° N
Cosmos 1959 Rocket 4.3 17:28:22 10° S 17:34:28 89° E 17:40:38 10° N
ATLAS 5 CENTAUR R/B 4.1 17:34:29 10° W 17:40:20 22° NNW 17:42:24 14° N
Lacrosse 4 Rocket 3.4 17:36:45 10° SSW 17:38:01 19° SSW 17:38:01 19° SSW
COSMOS 2428 2.8 17:37:49 10° SSW 17:50:21 - NNE 17:42:30 55° SSE
Cosmos 192 4.3 17:38:45 10° SSW 17:43:39 82° WNW 17:48:37 10° NNE
Meteor 1-23 Rocket 4.1 17:41:36 10° N 17:47:13 84° E 17:48:08 64° SSE
ASTEX 1 3.5 17:42:32 10° N 17:47:25 71° W 17:50:36 22° SSW
SJ-6B 4.2 17:46:54 27° SSW 17:48:32 39° W 17:52:23 10° NNW
BREEZE-M DEB (TANK) 4.2 17:33:21 10° W 17:49:23 69° SSW 17:50:35 55° SE
Meteor 1-11 Rocket 3.8 17:44:11 10° SSW 17:49:54 77° WNW 17:55:32 10° N
Cosmos 2219 Rocket 2.0 17:45:06 10° SSW 17:50:41 83° ESE 17:56:21 10° NNE
USA 234 3.1 17:52:33 41° ENE 17:55:06 88° SSE 18:01:40 10° WSW
SL-16 R/B 4.4 17:54:23 10° W 17:58:51 23° NW 18:03:21 10° N
SeaSat 1 4.1 17:55:16 10° NNE 17:59:40 33° NW 18:04:03 10° WSW
Resurs 1-3 4.2 18:01:24 55° W 18:01:24 55° W 18:05:31 10° NNW
Terra 4.2 18:04:04 12° NNE 18:04:04 12° NNE 18:04:40 10° NNE
OBJECT-B 3.4 18:03:22 21° WNW 18:03:22 21° WNW 18:05:10 10° NW
SJ 16-02 2.3 17:59:34 10° NNW 18:02:34 43° NNW 18:02:34 43° NNW
Meteor 2-20 Rocket 4.3 17:58:44 10° N 18:04:52 82° E 18:04:58 81° E
Cosmos 2369 Rocket 4.2 18:06:21 10° N 18:08:55 15° NNE 18:08:55 15° NNE
Cosmos 2322 4.2 18:04:57 10° SW 18:10:36 60° WNW 18:16:17 10° NNE
Gbstr 26 Del rocket 3.9 18:14:23 10° WNW 18:18:27 60° NW 18:18:27 60° NW
ATLAS CENTAUR R/B 3.9 18:25:23 10° W 18:26:57 17° WNW 18:26:57 17° WNW
NOSS 3-3 (A) 4.4 18:23:11 10° NW 18:30:40 84° SW 18:31:14 78° SSE
NOSS 3-3 (C) 4.4 18:23:16 10° NW 18:30:46 85° SW 18:31:19 79° SSE
Cosmos 2360 Rocket 4.5 18:44:02 10° W 18:48:19 22° NW 18:52:38 10° N
Cosmos 2278 Rocket 3.2 18:44:26 10° NW 18:48:36 43° WNW 18:48:36 43° WNW
Cosmos 2333 Rocket 3.7 18:52:46 10° WSW 18:57:54 34° NW 19:03:06 10° NNE
Cosmos 1943 Rocket 4.0 19:04:25 10° NNW 19:06:52 25° N 19:06:52 25° N
Resurs 01 Rocket 4.4 19:12:41 15° WNW 19:12:41 15° WNW 19:14:02 10° NW
Cosmos 2219 Rocket 4.3 19:31:01 10° W 19:35:22 23° NW 19:39:45 10° N
USA 234 4.4 19:39:54 37° WNW 19:39:54 37° WNW 19:44:05 10° W
ATLAS 3B R/B 4.4 23:51:14 24° NNW 23:51:25 24° N 23:56:49 10° NE
